Time,TemperatureF,DewpointF,PressureIn,WindDirection,WindDirectionDegrees,WindSpeedMPH,WindSpeedGustMPH,Humidity,HourlyPrecipIn,Conditions,Clouds,dailyrainin,SoftwareType,DateUTC
2013-02-15 00:03:00,52.3,26.1,29.26,NNE,20,0.0,0.0,36,0.00,SKC,SKC,0.00,WeatherDisplay:10.37,2013-02-15 08:03:00,
2013-02-15 00:08:00,52.2,26.0,29.26,NNE,20,0.0,0.0,36,0.00,SKC,SKC,0.00,WeatherDisplay:10.37,2013-02-15 08:08:00,
2013-02-15 00:13:00,52.2,26.0,29.26,NNE,20,0.0,0.0,36,0.00,SKC,SKC,0.00,WeatherDisplay:10.37,2013-02-15 08:13:00,
2013-02-15 00:23:00,52.2,26.0,29.26,NNE,20,0.0,0.0,36,0.00,SKC,SKC,0.00,WeatherDisplay:10.37,2013-02-15 08:23:00,
2013-02-15 00:33:00,52.0,25.8,29.26,NNE,20,0.0,0.0,36,0.00,SKC,SKC,0.00,WeatherDisplay:10.37,2013-02-15 08:33:00,
2013-02-15 00:43:00,52.0,25.8,29.26,NNE,20,0.0,0.0,36,0.00,SKC,SKC,0.00,WeatherDisplay:10.37,2013-02-15 08:43:00,
2013-02-15 00:48:00,52.0,25.8,29.26,NNE,20,0.0,0.0,36,0.00,SKC,SKC,0.00,WeatherDisplay:10.37,2013-02-15 08:48:00,
2013-02-15 00:53:00,52.2,26.0,29.26,NNE,20,0.0,0.0,36,0.00,SKC,SKC,0.00,WeatherDisplay:10.37,2013-02-15 08:53:00,
2013-02-15 01:03:00,52.2,26.0,29.26,NNE,20,0.0,0.0,36,0.00,SKC,SKC,0.00,WeatherDisplay:10.37,2013-02-15 09:03:00,
2013-02-15 01:08:00,52.2,26.0,29.26,NNE,20,0.0,0.0,36,0.00,SKC,SKC,0.00,WeatherDisplay:10.37,2013-02-15 09:08:00,
2013-02-15 01:13:00,52.2,26.0,29.26,NNE,20,0.0,0.0,36,0.00,SKC,SKC,0.00,WeatherDisplay:10.37,2013-02-15 09:13:00,
2013-02-15 01:18:00,52.0,25.8,29.26,NNE,20,0.0,0.0,36,0.00,SKC,SKC,0.00,WeatherDisplay:10.37,2013-02-15 09:18:00,
2013-02-15 01:23:00,51.8,25.7,29.26,NNE,20,0.0,0.0,36,0.00,SKC,SKC,0.00,WeatherDisplay:10.37,2013-02-15 09:23:00,
2013-02-15 01:28:00,52.0,27.1,29.26,NNE,20,0.0,0.0,38,0.00,SKC,SKC,0.00,WeatherDisplay:10.37,2013-02-15 09:28:00,
2013-02-15 01:33:00,52.0,25.8,29.26,NNE,20,0.0,0.0,36,0.00,SKC,SKC,0.00,WeatherDisplay:10.37,2013-02-15 09:33:00,
2013-02-15 01:38:00,51.8,25.7,29.26,NNE,20,0.0,0.0,36,0.00,SKC,SKC,0.00,WeatherDisplay:10.37,2013-02-15 09:38:00,
2013-02-15 01:43:00,52.0,27.1,29.26,NNE,20,0.0,0.0,38,0.00,SKC,SKC,0.00,WeatherDisplay:10.37,2013-02-15 09:43:00,
2013-02-15 01:48:00,52.0,27.1,29.26,NNE,20,0.0,0.0,38,0.00,SKC,SKC,0.00,WeatherDisplay:10.37,2013-02-15 09:48:00,
2013-02-15 01:53:00,52.0,27.1,29.26,NNE,20,0.0,0.0,38,0.00,SKC,SKC,0.00,WeatherDisplay:10.37,2013-02-15 09:53:00,
2013-02-15 01:58:00,52.0,27.1,29.26,NNE,20,0.0,0.0,38,0.00,SKC,SKC,0.00,WeatherDisplay:10.37,2013-02-15 09:58:00,
2013-02-15 02:03:00,51.8,27.0,29.26,NNE,20,0.0,0.0,38,0.00,SKC,SKC,0.00,WeatherDisplay:10.37,2013-02-15 10:03:00,
2013-02-15 02:08:00,51.6,27.4,29.26,NNE,20,0.0,0.0,39,0.00,SKC,SKC,0.00,WeatherDisplay:10.37,2013-02-15 10:08:00,
2013-02-15 02:13:00,51.4,27.3,29.26,NNE,16,0.0,0.0,39,0.00,SKC,SKC,0.00,WeatherDisplay:10.37,2013-02-15 10:13:00,
2013-02-15 02:23:00,51.5,27.3,29.26,North,5,0.0,0.0,39,0.00,SKC,SKC,0.00,WeatherDisplay:10.37,2013-02-15 10:23:00,
2013-02-15 02:33:00,51.9,27.1,29.26,North,10,0.0,0.0,38,0.00,SKC,SKC,0.00,WeatherDisplay:10.37,2013-02-15 10:33:00,
2013-02-15 02:43:00,51.6,27.4,29.26,North,10,0.0,0.0,39,0.00,SKC,SKC,0.00,WeatherDisplay:10.37,2013-02-15 10:43:00,
2013-02-15 02:48:00,51.6,27.4,29.26,North,11,0.0,0.0,39,0.00,SKC,SKC,0.00,WeatherDisplay:10.37,2013-02-15 10:48:00,
2013-02-15 02:53:00,51.6,27.4,29.26,North,9,0.0,0.0,39,0.00,SKC,SKC,0.00,WeatherDisplay:10.37,2013-02-15 10:53:00,
2013-02-15 02:58:00,51.4,27.3,29.26,North,7,0.0,0.0,39,0.00,SKC,SKC,0.00,WeatherDisplay:10.37,2013-02-15 10:58:00,
2013-02-15 03:03:00,51.4,27.3,29.26,North,7,0.0,0.0,39,0.00,SKC,SKC,0.00,WeatherDisplay:10.37,2013-02-15 11:03:00,
2013-02-15 03:08:00,51.4,27.3,29.26,North,7,0.0,0.0,39,0.00,SKC,SKC,0.00,WeatherDisplay:10.37,2013-02-15 11:08:00,
2013-02-15 03:13:00,51.6,27.4,29.26,North,7,0.0,0.0,39,0.00,SKC,SKC,0.00,WeatherDisplay:10.37,2013-02-15 11:13:00,
2013-02-15 03:18:00,51.6,27.4,29.26,North,7,0.0,0.0,39,0.00,SKC,SKC,0.00,WeatherDisplay:10.37,2013-02-15 11:18:00,
2013-02-15 03:23:00,51.6,27.4,29.26,North,7,0.0,0.0,39,0.00,SKC,SKC,0.00,WeatherDisplay:10.37,2013-02-15 11:23:00,
2013-02-15 03:33:00,51.4,27.3,29.26,North,11,0.0,0.0,39,0.00,SKC,SKC,0.00,WeatherDisplay:10.37,2013-02-15 11:33:00,
2013-02-15 03:43:00,51.6,25.5,29.26,NNE,13,0.0,0.0,36,0.00,SKC,SKC,0.00,WeatherDisplay:10.37,2013-02-15 11:43:00,
2013-02-15 03:48:00,51.7,25.6,29.26,NNE,22,0.0,0.0,36,0.00,SKC,SKC,0.00,WeatherDisplay:10.37,2013-02-15 11:48:00,
2013-02-15 03:53:00,51.6,25.5,29.26,NNE,23,0.0,0.0,36,0.00,SKC,SKC,0.00,WeatherDisplay:10.37,2013-02-15 11:53:00,
2013-02-15 04:03:00,51.4,27.3,29.26,NNE,16,0.0,0.0,39,0.00,SKC,SKC,0.00,WeatherDisplay:10.37,2013-02-15 12:03:00,
2013-02-15 04:08:00,51.3,27.2,29.26,NNE,17,0.0,0.0,39,0.00,SKC,SKC,0.00,WeatherDisplay:10.37,2013-02-15 12:08:00,
2013-02-15 04:13:00,51.3,25.2,29.26,NNE,22,0.0,0.0,36,0.00,SKC,SKC,0.00,WeatherDisplay:10.37,2013-02-15 12:13:00,
2013-02-15 04:18:00,51.1,25.0,29.26,NNE,27,0.0,0.0,36,0.00,SKC,SKC,0.00,WeatherDisplay:10.37,2013-02-15 12:18:00,
2013-02-15 04:23:00,50.9,24.9,29.26,NNE,26,0.0,0.0,36,0.00,SKC,SKC,0.00,WeatherDisplay:10.37,2013-02-15 12:23:00,
2013-02-15 04:33:00,50.9,24.9,29.26,NNE,22,0.0,0.0,36,0.00,SKC,SKC,0.00,WeatherDisplay:10.37,2013-02-15 12:33:00,
2013-02-15 04:43:00,50.9,24.9,29.26,NNE,25,0.0,0.0,36,0.00,SKC,SKC,0.00,WeatherDisplay:10.37,2013-02-15 12:43:00,
2013-02-15 04:53:00,50.9,24.9,29.26,NNE,24,3.0,4.0,36,0.00,SKC,SKC,0.00,WeatherDisplay:10.37,2013-02-15 12:53:00,
2013-02-15 05:03:00,51.0,24.9,29.26,NNE,25,2.0,4.0,36,0.00,SKC,SKC,0.00,WeatherDisplay:10.37,2013-02-15 13:03:00,
2013-02-15 05:08:00,51.1,25.0,29.26,NNE,25,2.0,4.0,36,0.00,SKC,SKC,0.00,WeatherDisplay:10.37,2013-02-15 13:08:00,
2013-02-15 05:13:00,51.3,25.2,29.26,NNE,25,2.0,4.0,36,0.00,SKC,SKC,0.00,WeatherDisplay:10.37,2013-02-15 13:13:00,
2013-02-15 05:23:00,51.1,25.0,29.26,NNE,24,0.0,3.0,36,0.00,SKC,SKC,0.00,WeatherDisplay:10.37,2013-02-15 13:23:00,
2013-02-15 05:33:00,51.3,25.2,29.26,NNE,23,2.0,4.0,36,0.00,SKC,SKC,0.00,WeatherDisplay:10.37,2013-02-15 13:33:00,
2013-02-15 05:43:00,51.3,25.2,29.26,NNE,23,2.0,3.0,36,0.00,SKC,SKC,0.00,WeatherDisplay:10.37,2013-02-15 13:43:00,
2013-02-15 05:53:00,51.2,25.1,29.26,NNE,23,2.0,3.0,36,0.00,SKC,SKC,0.00,WeatherDisplay:10.37,2013-02-15 13:53:00,
2013-02-15 06:03:00,50.9,24.9,29.26,NNE,23,0.0,3.0,36,0.00,SKC,SKC,0.00,WeatherDisplay:10.37,2013-02-15 14:03:00,
2013-02-15 06:08:00,50.9,24.9,29.26,NNE,23,0.0,0.0,36,0.00,SKC,SKC,0.00,WeatherDisplay:10.37,2013-02-15 14:08:00,
2013-02-15 06:13:00,51.1,25.0,29.26,NNE,23,0.0,0.0,36,0.00,SKC,SKC,0.00,WeatherDisplay:10.37,2013-02-15 14:13:00,
2013-02-15 06:23:00,51.3,25.2,29.26,NNE,23,2.0,4.0,36,0.00,SKC,SKC,0.00,WeatherDisplay:10.37,2013-02-15 14:23:00,
2013-02-15 06:33:00,51.3,25.2,29.26,NNE,23,0.0,0.0,36,0.00,SKC,SKC,0.00,WeatherDisplay:10.37,2013-02-15 14:33:00,
2013-02-15 06:43:00,50.9,24.9,29.26,NNE,23,0.0,0.0,36,0.00,SKC,SKC,0.00,WeatherDisplay:10.37,2013-02-15 14:43:00,
2013-02-15 06:53:00,50.7,24.7,29.26,NNE,23,0.0,0.0,36,0.00,SKC,SKC,0.00,WeatherDisplay:10.37,2013-02-15 14:53:00,
2013-02-15 07:03:00,51.1,25.0,29.26,NNE,23,0.0,0.0,36,0.00,SKC,SKC,0.00,WeatherDisplay:10.37,2013-02-15 15:03:00,
2013-02-15 07:08:00,50.9,24.9,29.26,NNE,23,0.0,0.0,36,0.00,SKC,SKC,0.00,WeatherDisplay:10.37,2013-02-15 15:08:00,
2013-02-15 07:13:00,50.7,24.7,29.26,NNE,23,0.0,0.0,36,0.00,SKC,SKC,0.00,WeatherDisplay:10.37,2013-02-15 15:13:00,
2013-02-15 07:23:00,50.8,24.8,29.26,NNE,23,0.0,0.0,36,0.00,SKC,SKC,0.00,WeatherDisplay:10.37,2013-02-15 15:23:00,
2013-02-15 07:33:00,55.1,27.9,29.26,NNE,23,0.0,0.0,35,0.00,SKC,SKC,0.00,WeatherDisplay:10.37,2013-02-15 15:33:00,
2013-02-15 07:43:00,57.2,27.6,29.29,NNE,23,0.0,0.0,32,0.00,SKC,SKC,0.00,WeatherDisplay:10.37,2013-02-15 15:43:00,
2013-02-15 07:53:00,56.5,27.0,29.29,NNE,23,0.0,0.0,32,0.00,SKC,SKC,0.00,WeatherDisplay:10.37,2013-02-15 15:53:00,
2013-02-15 08:03:00,56.1,26.6,29.29,NNE,23,0.0,0.0,32,0.00,SKC,SKC,0.00,WeatherDisplay:10.37,2013-02-15 16:03:00,
2013-02-15 08:08:00,55.8,26.3,29.29,NNE,23,0.0,0.0,32,0.00,SKC,SKC,0.00,WeatherDisplay:10.37,2013-02-15 16:08:00,
2013-02-15 08:13:00,55.6,26.2,29.29,NNE,23,0.0,0.0,32,0.00,SKC,SKC,0.00,WeatherDisplay:10.37,2013-02-15 16:13:00,
2013-02-15 08:23:00,56.0,28.7,29.29,NNE,23,0.0,2.0,35,0.00,SKC,SKC,0.00,WeatherDisplay:10.37,2013-02-15 16:23:00,
2013-02-15 08:33:00,56.5,29.1,29.29,NNE,23,0.0,3.0,35,0.00,SKC,SKC,0.00,WeatherDisplay:10.37,2013-02-15 16:33:00,
2013-02-15 08:43:00,57.1,29.6,29.29,WSW,249,0.0,3.0,35,0.00,SKC,SKC,0.00,WeatherDisplay:10.37,2013-02-15 16:43:00,
2013-02-15 08:53:00,57.9,29.7,29.29,SW,235,2.0,4.0,34,0.00,SKC,SKC,0.00,WeatherDisplay:10.37,2013-02-15 16:53:00,
2013-02-15 09:03:00,58.4,28.6,29.29,SW,228,0.0,4.0,32,0.00,SKC,SKC,0.00,WeatherDisplay:10.37,2013-02-15 17:03:00,
2013-02-15 09:08:00,58.6,28.8,29.29,SW,232,3.0,4.0,32,0.00,SKC,SKC,0.00,WeatherDisplay:10.37,2013-02-15 17:08:00,
2013-02-15 09:13:00,58.8,29.0,29.29,SW,233,0.0,5.0,32,0.00,SKC,SKC,0.00,WeatherDisplay:10.37,2013-02-15 17:13:00,
2013-02-15 09:18:00,59.2,29.3,29.29,SW,231,2.0,6.0,32,0.00,SKC,SKC,0.00,WeatherDisplay:10.37,2013-02-15 17:18:00,
2013-02-15 09:23:00,59.3,29.4,29.31,SW,235,3.0,6.0,32,0.00,SKC,SKC,0.00,WeatherDisplay:10.37,2013-02-15 17:23:00,
2013-02-15 09:28:00,59.7,29.8,29.32,WSW,238,3.0,5.0,32,0.00,SKC,SKC,0.00,WeatherDisplay:10.37,2013-02-15 17:28:00,
2013-02-15 09:33:00,59.9,30.0,29.32,SW,236,3.0,6.0,32,0.00,SKC,SKC,0.00,WeatherDisplay:10.37,2013-02-15 17:33:00,
2013-02-15 09:43:00,60.3,30.3,29.29,SW,233,3.0,4.0,32,0.00,SKC,SKC,0.00,WeatherDisplay:10.37,2013-02-15 17:43:00,
2013-02-15 09:48:00,60.4,30.3,29.29,SW,231,2.0,6.0,32,0.00,SKC,SKC,0.00,WeatherDisplay:10.37,2013-02-15 17:48:00,
2013-02-15 09:53:00,60.7,29.9,29.29,SW,230,2.0,4.0,31,0.00,SKC,SKC,0.00,WeatherDisplay:10.37,2013-02-15 17:53:00,
2013-02-15 09:58:00,61.3,30.4,29.29,WSW,238,1.0,4.0,31,0.00,SKC,SKC,0.00,WeatherDisplay:10.37,2013-02-15 17:58:00,
2013-02-15 10:03:00,61.9,30.9,29.29,WSW,241,2.0,6.0,31,0.00,SKC,SKC,0.00,WeatherDisplay:10.37,2013-02-15 18:03:00,
2013-02-15 10:08:00,61.9,30.9,29.32,WSW,241,2.0,6.0,31,0.00,SKC,SKC,0.00,WeatherDisplay:10.37,2013-02-15 18:08:00,
2013-02-15 10:13:00,62.2,31.2,29.32,WSW,238,1.0,6.0,31,0.00,SKC,SKC,0.00,WeatherDisplay:10.37,2013-02-15 18:13:00,
2013-02-15 10:18:00,62.6,31.5,29.32,SW,236,1.0,4.0,31,0.00,SKC,SKC,0.00,WeatherDisplay:10.37,2013-02-15 18:18:00,
2013-02-15 10:23:00,63.0,31.9,29.32,WSW,242,3.0,6.0,31,0.00,SKC,SKC,0.00,WeatherDisplay:10.37,2013-02-15 18:23:00,
2013-02-15 10:33:00,63.9,32.6,29.32,WSW,240,3.0,4.0,31,0.00,SKC,SKC,0.00,WeatherDisplay:10.37,2013-02-15 18:33:00,
2013-02-15 10:38:00,63.8,32.5,29.32,SW,232,2.0,6.0,31,0.00,SKC,SKC,0.00,WeatherDisplay:10.37,2013-02-15 18:38:00,
2013-02-15 10:43:00,63.9,32.7,29.32,SW,232,2.0,4.0,31,0.00,SKC,SKC,0.00,WeatherDisplay:10.37,2013-02-15 18:43:00,
2013-02-15 10:48:00,64.5,32.4,29.32,WSW,248,2.0,5.0,30,0.00,SKC,SKC,0.00,WeatherDisplay:10.37,2013-02-15 18:48:00,
2013-02-15 10:53:00,65.3,33.0,29.32,WNW,290,1.0,4.0,30,0.00,SKC,SKC,0.00,WeatherDisplay:10.37,2013-02-15 18:53:00,
2013-02-15 10:58:00,66.0,33.6,29.32,West,265,1.0,4.0,30,0.00,SKC,SKC,0.00,WeatherDisplay:10.37,2013-02-15 18:58:00,
2013-02-15 11:03:00,66.2,33.9,29.32,West,261,0.0,4.0,30,0.00,SKC,SKC,0.00,WeatherDisplay:10.37,2013-02-15 19:03:00,
2013-02-15 11:08:00,66.5,34.1,29.32,WSW,255,3.0,5.0,30,0.00,SKC,SKC,0.00,WeatherDisplay:10.37,2013-02-15 19:08:00,
2013-02-15 11:13:00,66.2,33.8,29.32,SW,235,1.0,4.0,30,0.00,SKC,SKC,0.00,WeatherDisplay:10.37,2013-02-15 19:13:00,
2013-02-15 11:18:00,66.7,34.2,29.32,WSW,243,3.0,4.0,30,0.00,SKC,SKC,0.00,WeatherDisplay:10.37,2013-02-15 19:18:00,
2013-02-15 11:23:00,66.7,34.3,29.32,WSW,241,3.0,6.0,30,0.00,SKC,SKC,0.00,WeatherDisplay:10.37,2013-02-15 19:23:00,
2013-02-15 11:28:00,66.8,34.4,29.32,WSW,238,2.0,5.0,30,0.00,SKC,SKC,0.00,WeatherDisplay:10.37,2013-02-15 19:28:00,
2013-02-15 11:33:00,67.5,34.9,29.32,WSW,257,1.0,6.0,30,0.00,SKC,SKC,0.00,WeatherDisplay:10.37,2013-02-15 19:33:00,
2013-02-15 11:43:00,68.2,35.5,29.32,WSW,239,1.0,5.0,30,0.00,SKC,SKC,0.00,WeatherDisplay:10.37,2013-02-15 19:43:00,
2013-02-15 11:53:00,68.9,36.2,29.31,SW,227,0.0,3.0,30,0.00,SKC,SKC,0.00,WeatherDisplay:10.37,2013-02-15 19:53:00,
2013-02-15 12:03:00,69.2,36.4,29.29,WSW,239,2.0,6.0,30,0.00,SKC,SKC,0.00,WeatherDisplay:10.37,2013-02-15 20:03:00,
2013-02-15 12:08:00,69.8,36.1,29.32,WSW,239,1.0,5.0,29,0.00,SKC,SKC,0.00,WeatherDisplay:10.37,2013-02-15 20:08:00,
2013-02-15 12:13:00,70.3,36.5,29.32,West,275,0.0,4.0,29,0.00,SKC,SKC,0.00,WeatherDisplay:10.37,2013-02-15 20:13:00,
2013-02-15 12:23:00,71.3,37.4,29.30,WSW,245,1.0,5.0,29,0.00,SKC,SKC,0.00,WeatherDisplay:10.37,2013-02-15 20:23:00,
2013-02-15 12:33:00,70.9,37.0,29.29,WSW,251,3.0,6.0,29,0.00,SKC,SKC,0.00,WeatherDisplay:10.37,2013-02-15 20:33:00,
2013-02-15 12:43:00,71.3,37.4,29.29,WSW,253,2.0,4.0,29,0.00,SKC,SKC,0.00,WeatherDisplay:10.37,2013-02-15 20:43:00,
2013-02-15 12:53:00,73.2,38.1,29.29,North,349,2.0,5.0,28,0.00,SKC,SKC,0.00,WeatherDisplay:10.37,2013-02-15 20:53:00,
2013-02-15 12:58:00,72.3,38.3,29.29,SW,234,3.0,6.0,29,0.00,SKC,SKC,0.00,WeatherDisplay:10.37,2013-02-15 20:58:00,
2013-02-15 13:03:00,72.1,38.0,29.29,WSW,237,2.0,6.0,29,0.00,SKC,SKC,0.00,WeatherDisplay:10.37,2013-02-15 21:03:00,
2013-02-15 13:08:00,71.9,37.9,29.29,SW,227,3.0,6.0,29,0.00,SKC,SKC,0.00,WeatherDisplay:10.37,2013-02-15 21:08:00,
2013-02-15 13:13:00,72.1,38.1,29.29,SW,220,2.0,4.0,29,0.00,SKC,SKC,0.00,WeatherDisplay:10.37,2013-02-15 21:13:00,
2013-02-15 13:23:00,71.9,37.9,29.29,SW,235,0.0,4.0,29,0.00,SKC,SKC,0.00,WeatherDisplay:10.37,2013-02-15 21:23:00,
2013-02-15 13:28:00,72.3,38.3,29.29,SW,225,1.0,5.0,29,0.00,SKC,SKC,0.00,WeatherDisplay:10.37,2013-02-15 21:28:00,
2013-02-15 13:33:00,73.5,38.3,29.29,WSW,257,2.0,4.0,28,0.00,SKC,SKC,0.00,WeatherDisplay:10.37,2013-02-15 21:33:00,
2013-02-15 13:38:00,73.9,38.7,29.29,WNW,285,3.0,6.0,28,0.00,SKC,SKC,0.00,WeatherDisplay:10.37,2013-02-15 21:38:00,
2013-02-15 13:43:00,73.3,39.1,29.29,SW,228,3.0,6.0,29,0.00,SKC,SKC,0.00,WeatherDisplay:10.37,2013-02-15 21:43:00,
2013-02-15 13:53:00,72.0,38.0,29.29,SW,236,2.0,6.0,29,0.00,SKC,SKC,0.00,WeatherDisplay:10.37,2013-02-15 21:53:00,
2013-02-15 14:03:00,72.9,38.7,29.29,WSW,250,1.0,6.0,29,0.00,SKC,SKC,0.00,WeatherDisplay:10.37,2013-02-15 22:03:00,
2013-02-15 14:08:00,73.2,39.1,29.29,SW,225,0.0,6.0,29,0.00,SKC,SKC,0.00,WeatherDisplay:10.37,2013-02-15 22:08:00,
2013-02-15 14:13:00,73.4,38.3,29.29,SW,223,2.0,6.0,28,0.00,SKC,SKC,0.00,WeatherDisplay:10.37,2013-02-15 22:13:00,
2013-02-15 14:23:00,74.2,39.0,29.28,West,259,0.0,4.0,28,0.00,SKC,SKC,0.00,WeatherDisplay:10.37,2013-02-15 22:23:00,
2013-02-15 14:28:00,74.9,39.6,29.26,WSW,247,1.0,3.0,28,0.00,SKC,SKC,0.00,WeatherDisplay:10.37,2013-02-15 22:28:00,
2013-02-15 14:33:00,74.9,39.6,29.26,WSW,249,0.0,4.0,28,0.00,SKC,SKC,0.00,WeatherDisplay:10.37,2013-02-15 22:33:00,
2013-02-15 14:38:00,74.7,39.4,29.26,West,270,2.0,6.0,28,0.00,SKC,SKC,0.00,WeatherDisplay:10.37,2013-02-15 22:38:00,
2013-02-15 14:43:00,74.0,38.8,29.26,WSW,252,2.0,6.0,28,0.00,SKC,SKC,0.00,WeatherDisplay:10.37,2013-02-15 22:43:00,
2013-02-15 14:53:00,73.6,38.5,29.26,WSW,237,1.0,5.0,28,0.00,SKC,SKC,0.00,WeatherDisplay:10.37,2013-02-15 22:53:00,
2013-02-15 15:03:00,73.8,38.7,29.26,WSW,248,0.0,6.0,28,0.00,SKC,SKC,0.00,WeatherDisplay:10.37,2013-02-15 23:03:00,
2013-02-15 15:13:00,72.9,38.8,29.29,WSW,238,2.0,6.0,29,0.00,SKC,SKC,0.00,WeatherDisplay:10.37,2013-02-15 23:13:00,
2013-02-15 15:23:00,73.8,38.6,29.26,WSW,254,2.0,3.0,28,0.00,SKC,SKC,0.00,WeatherDisplay:10.37,2013-02-15 23:23:00,
2013-02-15 15:33:00,74.3,39.1,29.26,WSW,250,1.0,4.0,28,0.00,SKC,SKC,0.00,WeatherDisplay:10.37,2013-02-15 23:33:00,
2013-02-15 15:43:00,74.4,39.1,29.29,West,262,0.0,3.0,28,0.00,SKC,SKC,0.00,WeatherDisplay:10.37,2013-02-15 23:43:00,
2013-02-15 15:53:00,75.0,39.7,29.28,NNW,331,0.0,2.0,28,0.00,SKC,SKC,0.00,WeatherDisplay:10.37,2013-02-15 23:53:00,
2013-02-15 15:58:00,75.0,39.7,29.26,West,281,0.0,4.0,28,0.00,SKC,SKC,0.00,WeatherDisplay:10.37,2013-02-15 23:58:00,
2013-02-15 16:08:00,73.3,39.1,29.26,SW,231,3.0,5.0,29,0.00,SKC,SKC,0.00,WeatherDisplay:10.37,2013-02-16 00:08:00,
2013-02-15 16:13:00,72.5,38.4,29.26,SW,230,0.0,3.0,29,0.00,SKC,SKC,0.00,WeatherDisplay:10.37,2013-02-16 00:13:00,
2013-02-15 16:18:00,72.5,38.4,29.26,SW,233,0.0,3.0,29,0.00,SKC,SKC,0.00,WeatherDisplay:10.37,2013-02-16 00:18:00,
2013-02-15 16:23:00,73.1,39.0,29.26,WSW,242,0.0,3.0,29,0.00,SKC,SKC,0.00,WeatherDisplay:10.37,2013-02-16 00:23:00,
2013-02-15 16:28:00,73.2,39.0,29.26,WSW,250,0.0,0.0,29,0.00,SKC,SKC,0.00,WeatherDisplay:10.37,2013-02-16 00:28:00,
2013-02-15 16:33:00,72.8,38.7,29.26,WSW,245,0.0,4.0,29,0.00,SKC,SKC,0.00,WeatherDisplay:10.37,2013-02-16 00:33:00,
2013-02-15 16:43:00,72.1,38.1,29.26,West,261,0.0,0.0,29,0.00,SKC,SKC,0.00,WeatherDisplay:10.37,2013-02-16 00:43:00,
2013-02-15 16:48:00,72.1,38.1,29.26,NNW,346,0.0,0.0,29,0.00,SKC,SKC,0.00,WeatherDisplay:10.37,2013-02-16 00:48:00,
2013-02-15 16:53:00,72.0,38.0,29.26,NNW,348,0.0,0.0,29,0.00,SKC,SKC,0.00,WeatherDisplay:10.37,2013-02-16 00:53:00,
2013-02-15 16:58:00,71.5,37.5,29.26,NNW,342,0.0,0.0,29,0.00,SKC,SKC,0.00,WeatherDisplay:10.37,2013-02-16 00:58:00,
2013-02-15 17:03:00,71.1,37.2,29.26,NNW,342,0.0,0.0,29,0.00,SKC,SKC,0.00,WeatherDisplay:10.37,2013-02-16 01:03:00,
2013-02-15 17:08:00,70.8,37.0,29.26,NNW,342,0.0,0.0,29,0.00,SKC,SKC,0.00,WeatherDisplay:10.37,2013-02-16 01:08:00,
2013-02-15 17:13:00,70.7,36.9,29.26,NNW,342,0.0,0.0,29,0.00,SKC,SKC,0.00,WeatherDisplay:10.37,2013-02-16 01:13:00,
2013-02-15 17:18:00,70.3,36.6,29.26,NNW,342,0.0,0.0,29,0.00,SKC,SKC,0.00,WeatherDisplay:10.37,2013-02-16 01:18:00,
2013-02-15 17:23:00,69.8,36.1,29.26,NNW,335,0.0,0.0,29,0.00,SKC,SKC,0.00,WeatherDisplay:10.37,2013-02-16 01:23:00,
2013-02-15 17:28:00,68.3,35.6,29.26,West,273,0.0,4.0,30,0.00,SKC,SKC,0.00,WeatherDisplay:10.37,2013-02-16 01:28:00,
2013-02-15 17:33:00,67.0,34.5,29.26,WSW,241,0.0,3.0,30,0.00,SKC,SKC,0.00,WeatherDisplay:10.37,2013-02-16 01:33:00,
2013-02-15 17:38:00,66.1,33.7,29.26,WSW,239,0.0,3.0,30,0.00,SKC,SKC,0.00,WeatherDisplay:10.37,2013-02-16 01:38:00,
2013-02-15 17:43:00,65.1,32.9,29.26,WSW,237,0.0,0.0,30,0.00,SKC,SKC,0.00,WeatherDisplay:10.37,2013-02-16 01:43:00,
2013-02-15 17:53:00,64.0,32.7,29.29,SW,236,0.0,0.0,31,0.00,SKC,SKC,0.00,WeatherDisplay:10.37,2013-02-16 01:53:00,
2013-02-15 18:03:00,63.3,32.2,29.29,SW,234,0.0,0.0,31,0.00,SKC,SKC,0.00,WeatherDisplay:10.37,2013-02-16 02:03:00,
2013-02-15 18:08:00,63.1,32.0,29.29,SW,234,0.0,0.0,31,0.00,SKC,SKC,0.00,WeatherDisplay:10.37,2013-02-16 02:08:00,
2013-02-15 18:13:00,62.8,31.7,29.29,SW,234,0.0,0.0,31,0.00,SKC,SKC,0.00,WeatherDisplay:10.37,2013-02-16 02:13:00,
2013-02-15 18:23:00,61.9,30.9,29.29,SW,234,0.0,0.0,31,0.00,SKC,SKC,0.00,WeatherDisplay:10.37,2013-02-16 02:23:00,
2013-02-15 18:28:00,61.5,30.6,29.29,SW,234,0.0,0.0,31,0.00,SKC,SKC,0.00,WeatherDisplay:10.37,2013-02-16 02:28:00,
2013-02-15 18:33:00,61.2,30.3,29.29,SW,234,0.0,0.0,31,0.00,SKC,SKC,0.00,WeatherDisplay:10.37,2013-02-16 02:33:00,
2013-02-15 18:43:00,60.6,30.6,29.29,SW,234,0.0,0.0,32,0.00,SKC,SKC,0.00,WeatherDisplay:10.37,2013-02-16 02:43:00,
2013-02-15 18:48:00,60.6,30.6,29.29,SW,234,0.0,0.0,32,0.00,SKC,SKC,0.00,WeatherDisplay:10.37,2013-02-16 02:48:00,
2013-02-15 18:53:00,60.2,30.2,29.29,SW,234,0.0,0.0,32,0.00,SKC,SKC,0.00,WeatherDisplay:10.37,2013-02-16 02:53:00,
2013-02-15 18:58:00,59.6,29.7,29.29,SW,234,0.0,0.0,32,0.00,SKC,SKC,0.00,WeatherDisplay:10.37,2013-02-16 02:58:00,
2013-02-15 19:03:00,59.1,29.2,29.29,SW,234,0.0,0.0,32,0.00,SKC,SKC,0.00,WeatherDisplay:10.37,2013-02-16 03:03:00,
2013-02-15 19:08:00,58.6,28.8,29.29,SW,234,0.0,0.0,32,0.00,SKC,SKC,0.00,WeatherDisplay:10.37,2013-02-16 03:08:00,
2013-02-15 19:13:00,58.5,28.7,29.29,WSW,249,0.0,0.0,32,0.00,SKC,SKC,0.00,WeatherDisplay:10.37,2013-02-16 03:13:00,
2013-02-15 19:23:00,57.9,28.2,29.29,WNW,289,0.0,0.0,32,0.00,SKC,SKC,0.00,WeatherDisplay:10.37,2013-02-16 03:23:00,
2013-02-15 19:33:00,57.6,27.9,29.29,NW,312,0.0,0.0,32,0.00,SKC,SKC,0.00,WeatherDisplay:10.37,2013-02-16 03:33:00,
2013-02-15 19:43:00,57.2,27.6,29.29,North,351,0.0,0.0,32,0.00,SKC,SKC,0.00,WeatherDisplay:10.37,2013-02-16 03:43:00,
2013-02-15 19:48:00,57.1,27.5,29.29,North,352,1.0,3.0,32,0.00,SKC,SKC,0.00,WeatherDisplay:10.37,2013-02-16 03:48:00,
2013-02-15 19:53:00,57.0,27.4,29.29,North,352,1.0,3.0,32,0.00,SKC,SKC,0.00,WeatherDisplay:10.37,2013-02-16 03:53:00,
2013-02-15 19:58:00,56.8,27.3,29.29,North,355,0.0,3.0,32,0.00,SKC,SKC,0.00,WeatherDisplay:10.37,2013-02-16 03:58:00,
2013-02-15 20:03:00,56.8,27.3,29.29,North,1,2.0,3.0,32,0.00,SKC,SKC,0.00,WeatherDisplay:10.37,2013-02-16 04:03:00,
2013-02-15 20:08:00,56.7,27.1,29.29,North,4,0.0,3.0,32,0.00,SKC,SKC,0.00,WeatherDisplay:10.37,2013-02-16 04:08:00,
2013-02-15 20:13:00,56.7,27.1,29.29,North,7,0.0,0.0,32,0.00,SKC,SKC,0.00,WeatherDisplay:10.37,2013-02-16 04:13:00,
2013-02-15 20:18:00,56.7,27.1,29.29,North,8,0.0,0.0,32,0.00,SKC,SKC,0.00,WeatherDisplay:10.37,2013-02-16 04:18:00,
2013-02-15 20:23:00,56.5,26.9,29.29,NNE,13,0.0,0.0,32,0.00,SKC,SKC,0.00,WeatherDisplay:10.37,2013-02-16 04:23:00,
2013-02-15 20:28:00,56.5,26.9,29.29,NNE,22,0.0,0.0,32,0.00,SKC,SKC,0.00,WeatherDisplay:10.37,2013-02-16 04:28:00,
2013-02-15 20:33:00,56.5,26.9,29.29,NNE,26,0.0,3.0,32,0.00,SKC,SKC,0.00,WeatherDisplay:10.37,2013-02-16 04:33:00,
2013-02-15 20:38:00,56.3,26.8,29.29,NNE,27,0.0,0.0,32,0.00,SKC,SKC,0.00,WeatherDisplay:10.37,2013-02-16 04:38:00,
2013-02-15 20:43:00,56.3,26.8,29.29,NNE,28,0.0,0.0,32,0.00,SKC,SKC,0.00,WeatherDisplay:10.37,2013-02-16 04:43:00,
2013-02-15 20:53:00,56.1,26.6,29.29,NNE,26,0.0,4.0,32,0.00,SKC,SKC,0.00,WeatherDisplay:10.37,2013-02-16 04:53:00,
2013-02-15 21:03:00,56.1,26.6,29.29,NNE,27,1.0,4.0,32,0.00,SKC,SKC,0.00,WeatherDisplay:10.37,2013-02-16 05:03:00,
2013-02-15 21:08:00,56.1,26.6,29.29,NNE,26,0.0,3.0,32,0.00,SKC,SKC,0.00,WeatherDisplay:10.37,2013-02-16 05:08:00,
2013-02-15 21:13:00,55.9,26.5,29.29,NNE,26,0.0,3.0,32,0.00,SKC,SKC,0.00,WeatherDisplay:10.37,2013-02-16 05:13:00,
2013-02-15 21:18:00,55.9,26.5,29.29,NNE,25,0.0,0.0,32,0.00,SKC,SKC,0.00,WeatherDisplay:10.37,2013-02-16 05:18:00,
2013-02-15 21:23:00,55.9,26.5,29.29,NNE,23,0.0,0.0,32,0.00,SKC,SKC,0.00,WeatherDisplay:10.37,2013-02-16 05:23:00,
2013-02-15 21:33:00,55.9,26.5,29.29,NNE,23,0.0,0.0,32,0.00,SKC,SKC,0.00,WeatherDisplay:10.37,2013-02-16 05:33:00,
2013-02-15 21:38:00,55.8,26.3,29.29,NNE,23,0.0,0.0,32,0.00,SKC,SKC,0.00,WeatherDisplay:10.37,2013-02-16 05:38:00,
2013-02-15 21:43:00,55.6,26.2,29.29,NNE,23,0.0,0.0,32,0.00,SKC,SKC,0.00,WeatherDisplay:10.37,2013-02-16 05:43:00,
2013-02-15 21:48:00,55.6,26.2,29.29,NNE,23,0.0,0.0,32,0.00,SKC,SKC,0.00,WeatherDisplay:10.37,2013-02-16 05:48:00,
2013-02-15 21:53:00,55.4,26.0,29.29,NNE,23,0.0,0.0,32,0.00,SKC,SKC,0.00,WeatherDisplay:10.37,2013-02-16 05:53:00,
2013-02-15 21:58:00,55.4,26.0,29.29,NNE,23,0.0,0.0,32,0.00,SKC,SKC,0.00,WeatherDisplay:10.37,2013-02-16 05:58:00,
2013-02-15 22:03:00,55.4,26.0,29.29,NNE,23,0.0,0.0,32,0.00,SKC,SKC,0.00,WeatherDisplay:10.37,2013-02-16 06:03:00,
2013-02-15 22:08:00,55.3,25.9,29.27,NNE,21,0.0,4.0,32,0.00,SKC,SKC,0.00,WeatherDisplay:10.37,2013-02-16 06:08:00,
2013-02-15 22:13:00,54.9,26.3,29.26,NNE,21,3.0,4.0,33,0.00,SKC,SKC,0.00,WeatherDisplay:10.37,2013-02-16 06:13:00,
2013-02-15 22:18:00,54.5,26.0,29.26,NNE,18,3.0,4.0,33,0.00,SKC,SKC,0.00,WeatherDisplay:10.37,2013-02-16 06:18:00,
2013-02-15 22:23:00,54.5,26.0,29.29,NNE,15,3.0,4.0,33,0.00,SKC,SKC,0.00,WeatherDisplay:10.37,2013-02-16 06:23:00,
2013-02-15 22:28:00,54.3,25.8,29.29,NNE,17,1.0,4.0,33,0.00,SKC,SKC,0.00,WeatherDisplay:10.37,2013-02-16 06:28:00,
2013-02-15 22:33:00,54.5,25.9,29.29,NNE,24,2.0,4.0,33,0.00,SKC,SKC,0.00,WeatherDisplay:10.37,2013-02-16 06:33:00,
2013-02-15 22:38:00,54.6,26.0,29.29,NNE,24,2.0,3.0,33,0.00,SKC,SKC,0.00,WeatherDisplay:10.37,2013-02-16 06:38:00,
2013-02-15 22:43:00,54.7,26.1,29.29,NNE,20,0.0,0.0,33,0.00,SKC,SKC,0.00,WeatherDisplay:10.37,2013-02-16 06:43:00,
2013-02-15 22:48:00,54.7,26.1,29.29,NNE,16,0.0,0.0,33,0.00,SKC,SKC,0.00,WeatherDisplay:10.37,2013-02-16 06:48:00,
2013-02-15 22:53:00,54.5,26.0,29.29,NNE,16,1.0,3.0,33,0.00,SKC,SKC,0.00,WeatherDisplay:10.37,2013-02-16 06:53:00,
2013-02-15 23:03:00,54.5,26.0,29.29,NNE,16,0.0,0.0,33,0.00,SKC,SKC,0.00,WeatherDisplay:10.37,2013-02-16 07:03:00,
2013-02-15 23:08:00,54.5,26.0,29.29,NNE,16,0.0,0.0,33,0.00,SKC,SKC,0.00,WeatherDisplay:10.37,2013-02-16 07:08:00,
2013-02-15 23:13:00,54.3,25.8,29.29,NNE,16,0.0,0.0,33,0.00,SKC,SKC,0.00,WeatherDisplay:10.37,2013-02-16 07:13:00,
2013-02-15 23:18:00,54.1,25.6,29.29,NNE,16,0.0,0.0,33,0.00,SKC,SKC,0.00,WeatherDisplay:10.37,2013-02-16 07:18:00,
2013-02-15 23:28:00,53.8,25.3,29.26,NNE,17,0.0,3.0,33,0.00,SKC,SKC,0.00,WeatherDisplay:10.37,2013-02-16 07:28:00,
2013-02-15 23:33:00,53.8,25.3,29.26,NNE,18,0.0,0.0,33,0.00,SKC,SKC,0.00,WeatherDisplay:10.37,2013-02-16 07:33:00,
2013-02-15 23:43:00,53.8,25.3,29.29,NNE,19,2.0,3.0,33,0.00,SKC,SKC,0.00,WeatherDisplay:10.37,2013-02-16 07:43:00,
2013-02-15 23:53:00,53.8,25.3,29.29,NNE,19,0.0,0.0,33,0.00,SKC,SKC,0.00,WeatherDisplay:10.37,2013-02-16 07:53:00,